This demonstration page uses our WeatherBlox Daily Observations layout. Learn more.

Left ArrowRight Arrow

44.89941, -97.11507

Hourly Observations for May 8, 2019

Temp ( °F °C ) Dew Point ( °F °C ) Humidity (%) Winds ( mph kmh ) Pressure ( in mb ) Visibility ( mi km ) Precip ( " mm )
12:53 am 00:53 Cloudy with Light Rain 45 7.2 40 4.4 83 83 ENE 14 22 30.10 1019 9 14 0.05 1.27
1:53 am 01:53 Cloudy with Light Rain 45 7.2 41 5 86 86 ENE 13 20 30.09 1019 8 13 0.06 1.52
2:53 am 02:53 Cloudy with Light Rain 44 6.7 41 5 89 89 ENE 15 24 30.08 1019 7 11 0.05 1.27
3:11 am 03:11 Cloudy with Light Rain 44 6.7 41 5 89 89 ENE 15 24 30.08 1019 8 13 0.01 0.25
3:53 am 03:53 Cloudy with Light Rain 44 6.7 41 5 89 89 ENE 17 28 30.05 1018 6 10 0.05 1.27
4:23 am 04:23 Cloudy with Light Rain 44 6.7 41 5 89 89 ENE 17 28 30.05 1018 7 11 0.02 0.51
4:30 am 04:30 Cloudy with Light Rain 44 6.7 41 5 89 89 ENE 18 30 30.05 1018 8 13 0.03 0.76
4:53 am 04:53 Cloudy with Light Rain 44 6.7 41 5 89 89 ENE 21 33 30.04 1017 7 11 0.04 1.02
5:11 am 05:11 Cloudy with Light Rain 44 6.7 41 5 89 89 ENE 15 24 30.04 1017 7 11 0.01 0.25
5:21 am 05:21 Cloudy with Light Rain 44 6.7 41 5 89 89 ENE 15 24 30.03 1017 8 13 0.02 0.51
5:53 am 05:53 Cloudy with Light Rain 44 6.7 42 5.6 93 93 ENE 15 24 30.01 1016 8 13 0.04 1.02
6:53 am 06:53 Cloudy with Light Rain 45 7.2 42 5.6 90 90 E 12 19 30.00 1016 5 8 0.04 1.02
7:53 am 07:53 Cloudy with Light Rain 45 7.2 43 6.1 93 93 E 14 22 29.99 1016 5 8 0.04 1.02
8:53 am 08:53 Cloudy with Light Rain 45 7.2 42 5.6 90 90 E 16 26 29.98 1015 6 10 0.04 1.02
9:09 am 09:09 Cloudy with Light Rain 45 7.2 42 5.6 90 90 ENE 17 28 29.98 1015 6 10 0.00 0.03
9:34 am 09:34 Cloudy with Light Rain 45 7.2 42 5.6 90 90 ENE 15 24 29.97 1015 7 11 0.02 0.51
9:49 am 09:49 Cloudy with Light Rain 45 7 41 5 87 87 ENE 20 31 29.96 1015 8 13 0.02 0.51
9:53 am 09:53 Cloudy with Light Rain 45 7.2 41 5 86 86 ENE 18 30 29.95 1014 8 13 0.02 0.51
10:53 am 10:53 Cloudy with Light Rain 44 6.7 41 5 89 89 ENE 22 35 29.94 1014 8 13 0.02 0.51
11:31 am 11:31 Cloudy with Light Rain 43 6.1 40 4.4 89 89 ENE 23 37 29.94 1014 7 11 0.02 0.51
11:53 am 11:53 Cloudy with Light Rain 42 5.6 40 4.4 92 92 NE 22 35 29.93 1014 6 10 0.03 0.76
12:53 pm 12:53 Cloudy with Light Rain 41 5 39 3.9 93 93 NE 22 35 29.92 1013 5 8 0.05 1.27
1:53 pm 13:53 Cloudy with Light Rain 41 5 39 3.9 93 93 NE 22 35 29.92 1013 6 10 0.08 2.03
2:00 pm 14:00 Cloudy with Light Rain 41 5 38 3.3 89 89 NNE 25 41 29.93 1014 5 8 0.01 0.25
2:22 pm 14:22 Cloudy with Light Rain 41 5 38 3.3 89 89 NE 28 44 29.93 1014 8 13 0.03 0.76
2:53 pm 14:53 Cloudy with Light Rain 41 5 37 2.8 86 86 NE 24 39 29.92 1013 10 16 0.04 1.02
3:53 pm 15:53 Cloudy with Light Rain 40 4.4 37 2.8 89 89 NE 24 39 29.91 1013 10 16 0.06 1.52
4:12 pm 16:12 Cloudy with Light Rain 40 4.4 37 2.8 89 89 NE 24 39 29.92 1013 10 16 0.01 0.25
4:53 pm 16:53 Cloudy with Light Rain 40 4.4 37 2.8 89 89 NNE 24 39 29.90 1013 8 13 0.02 0.51
5:53 pm 17:53 Cloudy with Light Rain 37 2.8 35 1.7 93 93 NNE 25 41 29.93 1013 6 10 0.06 1.52
6:25 pm 18:25 Cloudy with Light Rain 37 2.8 34 1.1 89 89 NNE 23 37 29.97 1015 7 11 0.04 1.02
6:53 pm 18:53 Cloudy with Light Rain 36 2.2 34 1.1 93 93 NNE 20 31 29.96 1015 9 14 0.05 1.27
7:53 pm 19:53 Cloudy with Light Rain 36 2.2 34 1.1 93 93 NNE 18 30 29.98 1015 9 14 0.02 0.51
8:53 pm 20:53 Cloudy with Light Rain 36 2.2 34 1.1 93 93 NNE 20 31 29.99 1016 10 16 0.02 0.51
9:53 pm 21:53 Cloudy with Light Rain 37 2.8 34 1.1 89 89 NNE 17 28 30.00 1016 10 16 0.01 0.25
10:53 pm 22:53 Cloudy 37 2.8 34 1.1 89 89 N 16 26 30.00 1016 10 16 0.01 0.25
11:28 pm 23:28 Cloudy 37 2.8 35 1.7 93 93 N 22 35 30.02 1017 10 16 0.00 0.00
11:53 pm 23:53 Cloudy 38 3.3 35 1.7 89 89 N 18 30 30.00 1016 10 16 0.00 0.00

Powered by AerisWeather